Home   Weather   Brades   Past weeks

Flag for Montserrat Past Weather in Brades, Montserrat — Yesterday and Last 2 Weeks

Now
86 °F

Scattered clouds.


Feels Like: 95 °F
Forecast: 80 / 83 °F
Wind: 10 mph from East

Location: Vc Bird International Antigua Airport

Current Time: Sep 30, 2016 at 1:04:31 PM

Latest Report: Sep 30, 2016 at 12:00 PM


Visibility: N/A

Pressure: 29.89 "Hg

Humidity: 70%

Dew Point: 75 °F

Location of BradesLocation

Past Weather in Brades — Graph

°F

Brades Temperature Yesterday

Maximum temperature yesterday: 86 °F (at 10:00 AM)
Minimum temperature yesterday: 82 °F (at 12:00 AM)
Average temperature yesterday: 83 °F

High & Low Weather Summary for the Past Weeks

 TemperatureHumidityPressure
High88 °F (Sep 15, 1:00 PM)100% (Sep 21, 12:42 PM)30.04 "Hg (Sep 21, 12:42 PM)
Low75 °F (Sep 21, 12:42 PM)55% (Sep 22, 3:00 PM)29.83 "Hg (Sep 21, 2:00 AM)
Average82 °F78%29.94 "Hg
* Reported Sep 15 12:00 PM — Sep 30 12:00 PM, Brades, Weather by CustomWeather, © 2016

Note: Actual official high and low records may vary slightly from our data, if they occured in-between our weather recording intervals... More about our weather records

Advertising

Brades Weather History for the Previous 24 Hours

Scroll right to see more
 ConditionsComfort  
Time TempWeatherWind HumidityBarometerVisibility
12:00 PM
Fri, Sep 30
86 °FScattered clouds.10 mph70%29.89 "HgN/A
11:00 AM82 °FPartly sunny.9 mph84%29.92 "HgN/A
10:00 AM84 °FScattered clouds.12 mph74%29.92 "HgN/A
9:00 AM84 °FPassing clouds.16 mph70%29.92 "HgN/A
8:00 AM82 °FPassing clouds.13 mph79%29.92 "HgN/A
7:00 AM81 °FScattered clouds.12 mph79%29.89 "HgN/A
6:00 AM81 °FPassing clouds.10 mph79%29.89 "HgN/A
5:00 AM81 °FPassing clouds.10 mph79%29.89 "HgN/A
4:00 AM81 °FPassing clouds.8 mph79%29.89 "HgN/A
12:00 AM81 °FPassing clouds.12 mph79%29.95 "HgN/A
11:00 PM
Thu, Sep 29
82 °FPassing clouds.10 mph74%29.95 "HgN/A
10:00 PM82 °FPassing clouds.12 mph74%29.98 "HgN/A
9:00 PM82 °FPassing clouds.12 mph74%29.98 "HgN/A
8:00 PM82 °FPassing clouds.10 mph74%29.98 "HgN/A
7:00 PM82 °FPassing clouds.10 mph74%29.98 "HgN/A
6:00 PM82 °FPassing clouds.8 mph74%29.95 "HgN/A
5:00 PM84 °FPassing clouds.14 mph74%29.95 "HgN/A
4:00 PM84 °FPassing clouds.14 mph74%29.95 "HgN/A
3:00 PM84 °FSprinkles. Partly sunny.12 mph70%29.95 "HgN/A
2:00 PM86 °FLots of rain. Scattered clouds.12 mph75%29.95 "HgN/A
1:00 PM86 °FPassing clouds.14 mph70%29.95 "HgN/A
Weather by CustomWeather, © 2016

See weather overviewHow to use our weather pages